EW7678 Weather Reports


Display with metric or nautical units.
time (UTC)temp
F
wind
direction
speed
MPH
gust
MPH
rain 1hr
in
rain 24hr
in
rain mn
in
humidity
%
barometer
mb
20260508034550 61 26 0.0 0.0 0.00 0.01 0.01 57 1010.5
20260508033050 62 26 0.0 0.0 0.00 0.01 0.01 54 1010.5
20260508031549 65 26 0.0 0.0 0.00 0.01 0.01 48 1010.5
20260508030053 66 26 0.0 2.0 0.00 0.01 0.01 48 1010.5
20260508024548 69 25 0.0 2.0 0.00 0.01 0.01 44 1010.4
20260508023048 71 26 0.0 0.0 0.00 0.01 0.01 34 1010.4
20260508021548 73 26 0.0 0.0 0.00 0.01 0.01 34 1010.5
20260508020054 74 25 0.0 1.0 0.00 0.01 0.01 33 1010.4
20260508014546 75 26 0.0 2.0 0.00 0.04 0.01 32 1010.4
20260508013045 76 99 0.0 2.0 0.00 0.04 0.01 28 1010.5
20260508011546 76 50 0.0 3.0 0.00 0.04 0.01 26 1010.6
20260508010042 77 255 0.0 3.0 0.00 0.04 0.01 27 1010.7
20260508004548 79 181 0.0 2.0 0.00 0.04 0.01 23 1010.8
20260508003047 80 89 1.0 3.0 0.00 0.04 0.01 22 1010.9
20260508001541 79 279 0.0 2.0 0.00 0.04 0.01 24 1011.0
20260508000039 80 139 0.0 2.0 0.00 0.04 0.01 24 1010.9
20260507234548 80 226 0.0 3.0 0.00 0.04 0.01 23 1011.0
20260507233049 81 229 0.0 4.0 0.00 0.04 0.01 23 1011.0
20260507231536 81 325 0.0 3.0 0.00 0.04 0.01 20 1011.1
20260507230035 81 293 0.0 3.0 0.00 0.04 0.01 20 1011.3
20260507224534 80 16 1.0 3.0 0.00 0.04 0.01 21 1011.4
20260507223036 81 294 0.0 3.0 0.00 0.04 0.01 20 1011.7
20260507221535 80 76 2.0 4.0 0.00 0.04 0.01 21 1012.0
20260507220036 81 108 0.0 2.0 0.00 0.04 0.01 22 1012.1
20260507214528 79 98 0.0 4.0 0.00 0.04 0.01 22 1012.4
20260507213031 79 285 1.0 3.0 0.00 0.04 0.01 23 1012.7
20260507211528 78 293 1.0 6.0 0.00 0.04 0.01 24 1012.8
20260507210028 79 103 0.0 7.0 0.00 0.04 0.01 25 1013.0
20260507204522 78 94 2.0 3.0 0.00 0.04 0.01 23 1013.1
20260507203018 79 124 0.0 4.0 0.00 0.04 0.01 24 1013.3
20260507201517 77 257 0.0 5.0 0.00 0.04 0.01 25 1013.4
20260507200014 77 348 1.0 3.0 0.00 0.04 0.01 27 1013.7
20260507194526 75 123 0.0 4.0 0.00 0.04 0.01 29 1013.7
20260507193111 74 73 2.0 4.0 0.00 0.04 0.01 28 1013.9
20260507191505 74 90 1.0 4.0 0.00 0.04 0.01 33 1014.0
20260507190001 72 280 1.0 3.0 0.00 0.04 0.01 35 1014.1
20260507184600 72 120 0.0 4.0 0.00 0.04 0.01 33 1014.1
20260507183115 72 242 1.0 2.0 0.00 0.04 0.01 38 1014.3
20260507181600 71 77 1.0 3.0 0.00 0.04 0.01 39 1014.5
20260507180054 70 221 0.0 2.0 0.00 0.04 0.01 43 1014.6
20260507174601 70 119 0.0 3.0 0.00 0.04 0.01 42 1014.6
20260507173049 68 94 0.0 4.0 0.00 0.04 0.01 46 1014.6
20260507171543 67 68 0.0 2.0 0.00 0.04 0.01 45 1014.8
20260507170044 66 93 0.0 4.0 0.00 0.04 0.01 45 1015.0
20260507164548 65 98 0.0 2.0 0.00 0.04 0.01 54 1015.1
20260507163034 64 46 0.0 2.0 0.00 0.04 0.01 55 1015.2
20260507161546 63 158 0.0 2.0 0.00 0.04 0.01 57 1015.4
20260507160029 62 73 0.0 2.0 0.00 0.04 0.01 62 1015.5
20260507154525 60 309 0.0 2.0 0.00 0.04 0.01 64 1015.6
20260507153029 59 109 1.0 2.0 0.01 0.04 0.01 67 1015.7
20260507151517 57 97 0.0 3.0 0.01 0.04 0.01 75 1015.7
20260507150015 56 115 0.0 1.0 0.01 0.04 0.01 83 1015.6
20260507144509 53 113 0.0 0.0 0.01 0.04 0.01 95 1015.6
20260507143011 50 113 0.0 1.0 0.00 0.03 0.00 97 1015.6
20260507141505 45 23 0.0 0.0 0.00 0.03 0.00 96 1015.6
20260507140001 44 23 0.0 0.0 0.00 0.03 0.00 97 1015.4
20260507134600 42 23 0.0 0.0 0.00 0.03 0.00 96 1015.4
20260507133058 40 23 0.0 0.0 0.00 0.03 0.00 96 1015.1
20260507131602 40 23 0.0 0.0 0.00 0.03 0.00 95 1014.8
20260507130056 39 23 0.0 0.0 0.00 0.03 0.00 95 1014.6
20260507124602 40 23 0.0 0.0 0.00 0.03 0.00 95 1014.8
20260507123051 40 23 0.0 0.0 0.00 0.03 0.00 95 1014.8
20260507121548 41 23 0.0 0.0 0.00 0.03 0.00 95 1014.6
20260507120049 41 22 0.0 2.0 0.00 0.03 0.00 95 1014.6
20260507114602 42 40 0.0 0.0 0.00 0.03 0.00 95 1014.1
20260507113101 42 40 0.0 0.0 0.00 0.03 0.00 95 1014.0
20260507111541 42 40 0.0 0.0 0.00 0.03 0.00 94 1013.9
20260507110035 42 41 0.0 0.0 0.00 0.03 0.00 94 1013.6
20260507104540 42 41 0.0 0.0 0.00 0.03 0.00 94 1013.6
20260507103032 43 41 0.0 0.0 0.00 0.03 0.00 94 1013.6
20260507101529 44 41 0.0 0.0 0.00 0.03 0.00 95 1013.5
20260507100026 44 41 0.0 0.0 0.00 0.03 0.00 95 1013.2
20260507094525 44 41 0.0 1.0 0.00 0.03 0.00 93 1013.1
20260507093022 44 41 0.0 0.0 0.00 0.03 0.00 94 1012.9
20260507091519 44 41 0.0 0.0 0.00 0.03 0.00 93 1012.8
20260507090016 46 41 0.0 0.0 0.00 0.03 0.00 94 1012.6
20260507084514 46 41 0.0 0.0 0.00 0.03 0.00 93 1012.4
20260507083012 46 41 0.0 0.0 0.00 0.03 0.00 94 1012.3
20260507081510 46 41 0.0 0.0 0.00 0.03 0.00 93 1012.2
20260507080006 47 41 0.0 0.0 0.00 0.03 0.00 93 1011.8
20260507074504 48 41 0.0 0.0 0.00 0.03 0.00 93 1011.6
20260507073001 48 41 0.0 0.0 0.00 0.03 0.00 92 1011.4
20260507071558 49 41 0.0 0.0 0.00 0.03 0.00 92 1011.3
20260507064555 50 41 0.0 0.0 0.00 0.03 0.03 91 1011.0
20260507063055 51 41 0.0 0.0 0.00 0.03 0.03 91 1010.9
20260507061554 52 41 0.0 0.0 0.00 0.03 0.03 90 1010.8
20260507060058 53 41 0.0 0.0 0.00 0.03 0.03 90 1010.6
20260507054551 54 41 0.0 0.0 0.00 0.03 0.03 88 1010.5
20260507053051 55 41 0.0 0.0 0.00 0.03 0.03 88 1010.3
20260507051552 56 41 0.0 0.0 0.00 0.03 0.03 86 1010.0
20260507050049 57 41 0.0 0.0 0.00 0.03 0.03 85 1009.9
20260507044604 58 41 0.0 1.0 0.00 0.03 0.03 83 1009.9
20260507043101 58 103 0.0 0.0 0.00 0.03 0.03 81 1009.6
20260507041554 60 103 0.0 2.0 0.00 0.03 0.03 77 1009.5
20260507040047 61 128 0.0 2.0 0.00 0.03 0.03 75 1009.5